This is the latest recevied weather packets stored in our database for station/object KB4RFE. If no packets are shown the sender has not sent any weather packets the latest 10 day(s).
| Time | Temp. | Humidity | Pressure | Rain* | Wind** | Luminosity | Snow |
|---|---|---|---|---|---|---|---|
| 1788051494 | 26.11° C | 90% | 1023.2 hPa | 0 mm | - | 0 W/m² | - |
| 1788051187 | 26.11° C | 90% | 1023.1 hPa | 0 mm | - | 0 W/m² | - |
| 1788050886 | 26.11° C | 90% | 1023 hPa | 0 mm | - | 0 W/m² | - |
| 1788050597 | 26.11° C | 90% | 1023 hPa | 0 mm | - | 0 W/m² | - |
| 1788050282 | 26.11° C | 91% | 1022.9 hPa | 0 mm | - | 0 W/m² | - |
| 1788049982 | 26.11° C | 92% | 1022.9 hPa | 0 mm | - | 0 W/m² | - |
| 1788049679 | 26.11° C | 91% | 1022.7 hPa | 0 mm | - | 0 W/m² | - |
| 1788049375 | 26.11° C | 92% | 1022.6 hPa | 0 mm | - | 0 W/m² | - |
| 1788049075 | 26.11° C | 92% | 1022.7 hPa | 0 mm | - | 0 W/m² | - |
| 1788048771 | 26.11° C | 91% | 1022.6 hPa | 0 mm | - | 0 W/m² | - |
| 1788048469 | 26.11° C | 91% | 1022.8 hPa | 0 mm | - | 0 W/m² | - |
| 1788048168 | 26.11° C | 91% | 1022.7 hPa | 0 mm | - | 0 W/m² | - |
| 1788047866 | 26.11° C | 91% | 1022.8 hPa | 0 mm | - | 0 W/m² | - |
| 1788047561 | 26.11° C | 90% | 1022.7 hPa | 0 mm | - | 1 W/m² | - |
| 1788047261 | 26.11° C | 90% | 1022.7 hPa | 0 mm | - | 2 W/m² | - |
| 1788046956 | 26.11° C | 90% | 1022.8 hPa | 0 mm | - | 4 W/m² | - |
| 1788046654 | 26.11° C | 90% | 1022.7 hPa | 0 mm | - | 5 W/m² | - |
| 1788046350 | 26.11° C | 90% | 1022.9 hPa | 0 mm | - | 8 W/m² | - |
| 1788046047 | 26.11° C | 90% | 1022.9 hPa | 0 mm | - | 10 W/m² | - |
| 1788045743 | 26.11° C | 90% | 1022.9 hPa | 0 mm | - | 12 W/m² | - |
| 1788045437 | 26.11° C | 90% | 1022.7 hPa | 0 mm | - | 11 W/m² | - |
| 1788045133 | 26.11° C | 90% | 1022.8 hPa | 0 mm | - | 11 W/m² | - |
| 1788044832 | 26.11° C | 90% | 1022.8 hPa | 0 mm | - | 13 W/m² | - |
| 1788044527 | 26.11° C | 90% | 1022.8 hPa | 0 mm | - | 18 W/m² | - |
| 1788044226 | 26.11° C | 90% | 1022.7 hPa | 0 mm | - | 23 W/m² | - |
* Rain latest hour (hover to see other rain measurements)
** Current wind speed in m/s (hover to see current wind gust speed)